Date String (YYYY-MM-DD hh:mm:ss) UTC,Instrument flags,absolute air pressure of the measurement (hPa),sample flow rate (lpm),inlet stack bypass flow (lpm),air temperature of the measurement (°C),ambient temperature measured by the external sensor (°C),aerosol sample conditioner tube jacket temperature (°C),OPC LED temperature (°C),internal box temperature (°C),relative humidity of the measurement (%),span deviation,mass concentration of particles derived from Lorenz-Mie calculation of OPC scattering (μg/m³),mass concentration of particles derived from Lorenz-Mie calculation of OPC scattering (μg/m³),mass concentration of particles derived from Lorenz-Mie calculation of OPC scattering (μg/m³)
DateTimeUTC,F1_M11,P_M11,Q1_M11,Q2_M11,T1_M11,T2_M11,T3_M11,T4_M11,T5_M11,U1_M11,ZSPAN_M11,X0_M11,X2_M11,X1_M11
2023-09-30 03:00:00,SystemResetWarning,0828.8,5.00,000.00,028.0,025.5,000.0,036.5,029.6,17.8,0000.0,0014.60,0004.99,0003.75
2023-09-30 03:01:00,SystemResetWarning,0828.8,5.00,000.00,028.0,025.9,000.0,036.5,029.7,17.8,0000.0,0013.55,0004.98,0003.75
2023-09-30 03:02:00,SystemResetWarning,0828.9,5.00,000.00,028.0,026.2,000.0,036.5,029.8,17.8,0000.0,0013.56,0005.03,0003.74
2023-09-30 03:03:00,SystemResetWarning,0828.9,5.00,000.00,028.1,026.5,000.0,036.5,029.8,17.7,0000.0,0013.82,0005.05,0003.75
2023-09-30 03:04:00,SystemResetWarning,0828.9,5.01,000.00,028.1,026.7,000.0,036.6,029.9,17.8,0000.0,0014.24,0005.06,0003.75
2023-09-30 03:05:00,SystemResetWarning,0828.8,4.99,000.00,028.1,026.9,000.0,036.6,030.0,18.0,0000.0,0015.21,0005.07,0003.76
2023-09-30 03:06:00,SystemResetWarning,0828.8,4.99,000.00,028.2,027.0,000.0,036.6,030.0,18.4,0000.0,0015.13,0005.10,0003.76
2023-09-30 03:07:00,SystemResetWarning,0828.8,4.99,000.00,028.2,027.2,000.0,036.6,030.1,18.5,0000.0,0015.27,0005.07,0003.76
2023-09-30 03:08:00,SystemResetWarning,0828.7,5.00,000.00,028.3,027.3,000.0,036.6,030.1,18.4,0000.0,0015.52,0005.10,0003.77
2023-09-30 03:09:00,SystemResetWarning,0828.7,5.00,000.00,028.3,027.4,000.0,036.7,030.2,18.5,0000.0,0015.92,0005.21,0003.78
2023-09-30 03:10:00,SystemResetWarning,0828.8,5.00,000.00,028.4,027.5,000.0,036.7,030.2,18.5,0000.0,0015.51,0005.23,0003.79
2023-09-30 03:11:00,SystemResetWarning,0828.8,5.00,000.00,028.4,027.5,000.0,036.7,030.3,18.4,0000.0,0015.55,0005.25,0003.78
2023-09-30 03:12:00,SystemResetWarning,0828.7,4.97,000.00,028.4,026.6,000.0,036.7,030.2,18.2,0000.4,0016.69,0005.36,0003.79
2023-09-30 03:13:00,SystemResetWarning,0828.7,5.01,000.00,028.4,025.0,000.0,036.6,030.1,18.2,0000.0,0016.87,0005.37,0003.80
2023-09-30 03:14:00,SystemResetWarning,0828.7,5.01,000.00,028.3,024.7,000.0,036.6,029.9,18.2,0000.0,0017.17,0005.42,0003.80
2023-09-30 03:15:00,SystemResetWarning,0828.7,5.00,000.00,028.2,025.0,000.0,036.6,029.8,18.4,0000.0,0017.40,0005.46,0003.81
2023-09-30 03:16:00,SystemResetWarning,0828.7,5.00,000.00,028.2,025.3,000.0,036.6,029.8,18.4,0000.0,0016.50,0005.45,0003.82
2023-09-30 03:17:00,SystemResetWarning,0828.7,5.00,000.00,028.2,025.7,000.0,036.7,029.8,18.4,0000.0,0016.07,0005.46,0003.81
2023-09-30 03:18:00,SystemResetWarning,0828.7,5.00,000.00,028.2,026.0,000.0,036.7,029.9,18.5,0000.0,0016.02,0005.56,0003.82
2023-09-30 03:19:00,SystemResetWarning,0828.7,5.01,000.00,028.2,026.3,000.0,036.7,029.9,18.7,0000.0,0015.94,0005.59,0003.82
2023-09-30 03:20:00,SystemResetWarning,0828.7,5.00,000.00,028.2,026.6,000.0,036.7,030.0,18.9,0000.0,0017.10,0005.55,0003.82
2023-09-30 03:21:00,SystemResetWarning,0828.7,5.00,000.00,028.2,026.8,000.0,036.7,030.1,19.0,0000.0,0018.49,0005.54,0003.81
2023-09-30 03:22:00,SystemResetWarning,0828.7,5.00,000.00,028.3,027.0,000.0,036.7,030.1,19.1,0000.0,0020.96,0005.59,0003.81
2023-09-30 03:23:00,SystemResetWarning,0828.7,5.00,000.00,028.3,027.1,000.0,036.7,030.2,19.1,0000.0,0021.41,0005.52,0003.81
2023-09-30 03:24:00,SystemResetWarning,0828.7,4.99,000.00,028.4,027.2,000.0,036.7,030.2,19.1,0000.0,0022.61,0005.52,0003.81
2023-09-30 03:25:00,SystemResetWarning,0828.7,5.00,000.00,028.4,027.4,000.0,036.8,030.2,19.1,0000.0,0023.48,0005.50,0003.82
2023-09-30 03:26:00,SystemResetWarning,0828.7,4.99,000.00,028.4,027.1,000.0,036.8,030.3,19.1,0000.0,0023.99,0005.51,0003.82
2023-09-30 03:27:00,SystemResetWarning,0828.6,4.99,000.00,028.4,025.3,000.0,036.7,030.1,19.1,0000.0,0024.41,0005.57,0003.83
2023-09-30 03:28:00,SystemResetWarning,0828.6,5.01,000.00,028.3,024.6,000.0,036.7,030.0,19.0,0000.0,0026.40,0005.63,0003.84
2023-09-30 03:29:00,SystemResetWarning,0828.6,5.00,000.00,028.3,024.8,000.0,036.7,029.8,19.0,0000.0,0027.03,0005.57,0003.84
2023-09-30 03:30:00,SystemResetWarning,0828.6,5.01,000.00,028.2,025.1,000.0,036.7,029.8,19.1,0000.0,0028.01,0005.58,0003.84
2023-09-30 03:31:00,SystemResetWarning,0828.6,4.99,000.00,028.2,025.5,000.0,036.7,029.8,19.1,0000.0,0028.25,0005.60,0003.84
2023-09-30 03:32:00,SystemResetWarning,0828.6,5.00,000.00,028.2,025.8,000.0,036.7,029.9,19.2,0000.0,0027.36,0005.60,0003.85
2023-09-30 03:33:00,SystemResetWarning,0828.6,5.00,000.00,028.2,026.1,000.0,036.7,029.9,19.3,0000.0,0025.13,0005.55,0003.86
2023-09-30 03:34:00,SystemResetWarning,0828.6,5.00,000.00,028.2,026.4,000.0,036.7,030.0,19.2,0000.0,0023.12,0005.51,0003.87
2023-09-30 03:35:00,SystemResetWarning,0828.6,5.00,000.00,028.2,026.7,000.0,036.7,030.0,19.3,0000.0,0022.15,0005.50,0003.88
2023-09-30 03:36:00,SystemResetWarning,0828.6,4.98,000.00,028.3,026.8,000.0,036.7,030.1,19.3,0000.0,0020.73,0005.48,0003.89
2023-09-30 03:37:00,SystemResetWarning,0828.6,4.99,000.00,028.3,027.0,000.0,036.7,030.1,19.3,0000.0,0020.33,0005.47,0003.89
2023-09-30 03:38:00,SystemResetWarning,0828.6,5.01,000.00,028.3,027.2,000.0,036.8,030.2,19.3,0000.0,0020.05,0005.51,0003.89
2023-09-30 03:39:00,SystemResetWarning,0828.6,5.01,000.00,028.4,027.3,000.0,036.8,030.2,19.2,0000.0,0019.37,0005.48,0003.91
2023-09-30 03:40:00,SystemResetWarning,0828.5,4.99,000.00,028.4,027.3,000.0,036.8,030.3,19.2,0000.0,0019.15,0005.51,0003.92
2023-09-30 03:41:00,SystemResetWarning,0828.6,4.99,000.00,028.4,026.1,000.0,036.8,030.2,19.4,0000.0,0018.51,0005.56,0003.93
2023-09-30 03:42:00,SystemResetWarning,0828.6,5.00,000.00,028.4,024.8,000.0,036.7,030.0,19.5,0000.0,0018.31,0005.54,0003.95
2023-09-30 03:43:00,SystemResetWarning,0828.5,5.01,000.00,028.3,024.7,000.0,036.7,029.9,19.7,0000.0,0017.94,0005.54,0003.95
2023-09-30 03:44:00,SystemResetWarning,0828.5,5.01,000.00,028.2,024.9,000.0,036.7,029.7,19.8,0000.0,0018.39,0005.60,0003.95
2023-09-30 03:45:00,SystemResetWarning,0828.5,4.99,000.00,028.2,025.3,000.0,036.7,029.8,19.8,0000.0,0019.76,0005.65,0003.96
2023-09-30 03:46:00,SystemResetWarning,0828.6,5.00,000.00,028.2,025.7,000.0,036.7,029.8,19.9,0000.0,0020.59,0005.73,0003.96
2023-09-30 03:47:00,SystemResetWarning,0828.5,5.00,000.00,028.2,026.0,000.0,036.7,029.9,20.0,0000.0,0020.41,0005.84,0003.97
2023-09-30 03:48:00,SystemResetWarning,0828.6,5.00,000.00,028.2,026.3,000.0,036.7,029.9,20.1,0000.0,0021.16,0005.89,0003.98
2023-09-30 03:49:00,SystemResetWarning,0828.6,5.00,000.00,028.2,026.5,000.0,036.7,030.0,20.2,0000.0,0021.81,0005.82,0003.98
2023-09-30 03:50:00,SystemResetWarning,0828.6,5.00,000.00,028.2,026.7,000.0,036.7,030.0,20.1,0000.0,0021.91,0005.77,0003.96
2023-09-30 03:51:00,SystemResetWarning,0828.6,5.00,000.00,028.3,026.9,000.0,036.7,030.1,20.0,0000.0,0022.85,0005.75,0003.96
2023-09-30 03:52:00,SystemResetWarning,0828.6,5.00,000.00,028.3,027.0,000.0,036.7,030.1,20.0,0000.0,0022.91,0005.70,0003.95
2023-09-30 03:53:00,SystemResetWarning,0828.6,5.00,000.00,028.3,027.2,000.0,036.7,030.2,20.0,0000.0,0022.46,0005.73,0003.95
2023-09-30 03:54:00,SystemResetWarning,0828.6,5.00,000.00,028.4,027.3,000.0,036.8,030.2,20.1,0000.0,0022.28,0005.76,0003.95
2023-09-30 03:55:00,SystemResetWarning,0828.6,5.01,000.00,028.4,027.4,000.0,036.8,030.3,20.1,0000.0,0021.81,0005.74,0003.95
2023-09-30 03:56:00,SystemResetWarning,0828.6,5.00,000.00,028.5,026.9,000.0,036.8,030.3,20.0,0000.0,0022.76,0005.82,0003.96
2023-09-30 03:57:00,SystemResetWarning,0828.6,4.99,000.00,028.4,024.8,000.0,036.7,030.0,20.1,0000.0,0022.20,0005.78,0003.95
2023-09-30 03:58:00,SystemResetWarning,0828.6,5.01,000.00,028.3,023.6,000.0,036.7,029.8,20.3,0000.0,0022.82,0005.74,0003.95
2023-09-30 03:59:00,SystemResetWarning,0828.6,5.01,000.00,028.2,023.7,000.0,036.6,029.6,20.5,0000.0,0022.41,0005.69,0003.95
